Toluca Jose Maria, Mexico

5:09 PM CST on December 12, 2017 (GMT -0600)
Lic Adolfo Lopez Mateos International

Weather History for MMTO - December, 2012

Change the Weather History Date:

Monday, December 3, 2012

  Actual Average Record
Temperature  
Mean Temperature 51 °F -  
Max Temperature 69 °F 66 °F 75 °F (2004)
Min Temperature 33 °F 33 °F 24 °F (1999)
Degree Days  
Heating Degree Days 14    
Growing Degree Days 1 (Base 50)    
Moisture  
Dew Point 32 °F    
Average Humidity 54    
Maximum Humidity 87    
Minimum Humidity 18    
Precipitation  
Precipitation 0.00 in - - ()
Sea Level Pressure  
Sea Level Pressure 30.24 in    
Wind  
Wind Speed 4 mph ()    
Max Wind Speed 17 mph    
Max Gust Speed -    
Visibility 6.7 miles    
Events      
Averages and records for this station are not official NWS values.
T = Trace of Precipitation, MM = Missing Value Source: Averaged Metar Reports

Daily Weather History Graph

Daily Weather History Graph

Search for Another Location

Airport or City:

Trip Planner

Search our weather history database for the weather conditions in past years. The results will help you decide how hot, cold, wet, or windy it might be!

Date:

Astronomy

Dec. 03, 2012 Rise Set
Actual Time 6:57 AM CST 5:59 PM CST
Civil Twilight 6:33 AM CST 6:22 PM CST
Nautical Twilight 6:06 AM CST 6:50 PM CST
Astronomical Twilight 5:39 AM CST 7:17 PM CST
Moon 10:26 PM CST (12/3) 10:39 AM CST (12/3)
Length of Visible Light 11h 49m
Length of Day
11h 01m
Waning Gibbous, 78% of the Moon is Illuminated
Dec 3
Waning Gibbous
Dec 6
Last Quarter
Dec 13
New
Dec 19
First Quarter
Dec 28
Full

Hourly Weather History & Observations

Time (CST) Temp. Windchill Dew Point Humidity Pressure Visibility Wind Dir Wind Speed Gust Speed Precip Events Conditions
12:45 AM 41.0 °F 39.0 °F 33.8 °F 76% 30.43 in 5.0 mi WNW 3.5 mph - N/A   Scattered Clouds
1:45 AM 37.4 °F - 30.2 °F 75% 30.42 in 5.0 mi Calm Calm - N/A   Scattered Clouds
2:45 AM 35.6 °F - 32.0 °F 87% 29.95 in 4.0 mi Calm Calm - N/A   Scattered Clouds
3:45 AM 35.6 °F - 32.0 °F 87% 30.40 in 4.0 mi Calm Calm - N/A   Scattered Clouds
4:45 AM 33.8 °F - 28.4 °F 81% 30.40 in 3.0 mi Calm Calm - N/A   Scattered Clouds
5:45 AM 33.8 °F 30.8 °F 30.2 °F 87% 30.04 in 2.0 mi NE 3.5 mph - N/A   Scattered Clouds
6:45 AM 33.8 °F - 28.4 °F 81% 30.42 in 2.0 mi Calm Calm - N/A   Scattered Clouds
7:45 AM 33.8 °F - 30.2 °F 87% 30.44 in 5.0 mi Calm Calm - N/A   Scattered Clouds
8:45 AM 42.8 °F - 35.6 °F 76% 30.06 in 5.0 mi Calm Calm - N/A   Partly Cloudy
9:45 AM 51.8 °F - 35.6 °F 54% 30.46 in 5.0 mi WNW 3.5 mph - N/A   Clear
10:45 AM 60.8 °F - 35.6 °F 39% 30.44 in 5.0 mi West 5.8 mph - N/A   Clear
11:45 AM 64.4 °F - 32.0 °F 30% 29.86 in 7.0 mi WSW 10.4 mph - N/A   Clear
12:45 PM 68.0 °F - 32.0 °F 26% 30.37 in 7.0 mi NE 6.9 mph - N/A   Clear
1:45 PM 69.8 °F - 30.2 °F 23% 30.33 in 7.0 mi NW 15.0 mph - N/A   Clear
2:45 PM 69.8 °F - 39.2 °F 33% 29.82 in 10.0 mi ESE 17.3 mph - N/A   Scattered Clouds
3:45 PM 69.8 °F - 24.8 °F 18% 30.30 in 10.0 mi NNW 13.8 mph - N/A   Scattered Clouds
4:45 PM 69.8 °F - 28.4 °F 21% 30.30 in 10.0 mi SSW 8.1 mph - N/A   Scattered Clouds
5:45 PM 62.6 °F - 30.2 °F 30% 29.93 in 10.0 mi NE 10.4 mph - N/A   Scattered Clouds
6:45 PM 59.0 °F - 32.0 °F 36% 30.34 in 10.0 mi NNE 11.5 mph - N/A   Scattered Clouds
7:45 PM 55.4 °F - 32.0 °F 41% 30.36 in 10.0 mi NNE 8.1 mph - N/A   Scattered Clouds
8:45 PM 51.8 °F - 39.2 °F 62% 30.03 in 10.0 mi SE 5.8 mph - N/A   Scattered Clouds
9:45 PM 51.8 °F - 32.0 °F 47% 30.42 in 10.0 mi East 6.9 mph - N/A   Scattered Clouds
10:45 PM 48.2 °F - 30.2 °F 50% 30.42 in 8.0 mi ENE 4.6 mph - N/A   Partly Cloudy
11:45 PM 44.6 °F - 32.0 °F 61% 29.92 in 8.0 mi Calm Calm - N/A   Partly Cloudy